421  
ASUS41 KCLE 150212  
RWRCLE  
OHIO REGIONAL WEATHER ROUNDUP  
NATIONAL WEATHER SERVICE WILMINGTON, OH  
1000 PM EDT FRI AUG 14 2020  
 
NOTE: "FAIR" INDICATES FEW OR NO CLOUDS BELOW 12,000 FEET WITH NO  
SIGNIFICANT WEATHER AND/OR S TO VISIBILITY
.  
 
OHZ001>008-015>018-024>027-034-035-043-044-150300-  
NORTHWEST OHIO  
 
CITY SKY/WX TMP DP RH WIND PRES REMARKS
 
DEFIANCE FAIR 67 64 90 CALM 29.98R  
FINDLAY LGT RAIN 70 66 87 E5 30.00F  
TOLEDO EXPRESS FAIR 71 66 84 E8 29.97F  
TOLEDO EXEC FAIR 71 68 90 E3 29.99F  
LIMA LGT RAIN 69 65 86 E14G24 30.02F  

 
 
OHZ009>014-019>023-028>033-038-089-150300-  
NORTHEAST OHIO  
 
CITY SKY/WX TMP DP RH WIND PRES REMARKS
 
CLE-HOPKINS MOCLDY 79 63 57 NE10 30.00R  
CLE-LAKEFRONT FAIR 79 60 52 NE13 29.97R  
CUY CO. ARPT PTCLDY 73 61 64 E8 29.99S  
LORAIN-ELYRIA FAIR 72 61 68 NE5 29.99R  
ASHTABULA FAIR 72 58 61 E6 30.02R  
AKRON-CANTON FAIR 77 62 59 NE10 29.99R  
WOOSTER FAIR 72 62 71 CALM 29.99R  
MANSFIELD FAIR 75 64 68 NW5 30.00R  
YOUNGSTOWN MOCLDY 72 61 68 NE9 29.99S  

 
 
OHZ042-051>053-060>062-070>072-077>081-150300-  
SOUTHWEST OHIO  
 
CITY SKY/WX TMP DP RH WIND PRES REMARKS
 
CINC-COVINGTON MOCLDY 76 71 85 W5 29.95S  
CINC-LUNKEN MOCLDY 75 72 90 NE8 29.95R  
HAMILTON MOCLDY 78 68 71 NE5 29.96R  
DAYTON LGT RAIN 74 66 76 E9 30.02R  
WRIGHT-PAT AFB LGT RAIN 71 68 90 E3 30.00R FOG  
DAYTON GENERAL RAIN 70 66 87 E7 30.00R FOG  
WILMINGTON LGT RAIN 69 65 86 CALM 30.00R  

 
 
OHZ036-037-039>041-045>050-054>059-063>069-073>076-082>088-150300-  
CENTRAL AND SOUTHEAST OHIO  
 
CITY SKY/WX TMP DP RH WIND PRES REMARKS
 
COLUMBUS LGT RAIN 76 68 76 W5 29.96R  
OSU AIRPORT CLOUDY 72 69 90 NW12 29.99R  
BOLTON FIELD RAIN 73 67 82 NW5 30.00R  
RICKENBACK AFB MOCLDY 72 67 83 SW6 29.97R  
NEWARK FAIR 76 69 79 W5 29.96R  
MARION N/A N/A N/A N/A MISG 30.02R  
LANCASTER FAIR 72 69 90 CALM 29.97R  
ZANESVILLE FAIR 74 68 81 CALM 29.95R  
NEW PHILLY FAIR 72 66 81 CALM 29.97R  

 
 
 
CLICK HERE TO GO TO PREVIOUS BULLETINS.

The Nexlab OH Page
The Nexlab PA Page Main Text Page